KC9SDK Weather Reports


time (UTC)temp
C
wind
direction
speed
KPH
gust
KPH
rain 1hr
cm
rain 24hr
cm
rain mn
cm
humidity
%
barometer
mb
20260506044539 5 265 0.0 0.0 0.00 0.00 0.00 70 1014.1
20260506043029 5 265 0.0 0.0 0.00 0.00 0.00 67 1014.2
20260506041528 6 136 0.0 0.0 0.00 0.00 0.00 64 1014.1
20260506040048 6 342 0.0 0.0 0.00 0.00 0.00 62 1013.9
20260506034525 7 342 0.0 0.0 0.00 0.00 0.00 59 1013.6
20260506033024 7 342 0.0 0.0 0.00 0.00 0.00 56 1013.6
20260506031538 7 342 0.0 0.0 0.00 0.00 0.00 57 1013.6
20260506030023 8 342 0.0 0.0 0.00 0.00 0.00 53 1013.5
20260506024521 8 342 0.0 0.0 0.00 0.00 0.00 51 1013.4
20260506023019 8 342 0.0 0.0 0.00 0.00 0.00 52 1013.1
20260506021517 8 342 0.0 0.0 0.00 0.00 0.00 51 1012.9
20260506020017 9 342 0.0 0.0 0.00 0.00 0.00 51 1012.7
20260506014515 9 343 0.0 0.0 0.00 0.00 0.00 50 1012.5
20260506013012 10 338 0.0 0.0 0.00 0.00 0.00 48 1012.3
20260506011510 10 360 1.6 17.7 0.00 0.00 0.00 45 1012.0
20260506010013 10 336 1.6 16.1 0.00 0.00 0.00 45 1011.8
20260506004518 10 323 0.0 0.0 0.00 0.00 0.00 45 1011.7
20260506003009 11 350 3.2 19.3 0.00 0.00 0.00 44 1011.5
20260506001505 11 323 4.8 22.5 0.00 0.00 0.00 43 1011.6
20260506000003 11 330 4.8 24.1 0.00 0.00 0.00 42 1011.3
20260505234503 12 340 3.2 12.9 0.00 0.00 0.00 42 1011.3
20260505233002 12 326 3.2 19.3 0.00 0.00 0.00 43 1011.4
20260505231501 12 344 4.8 27.4 0.00 0.00 0.00 43 1011.3
20260505230002 12 325 3.2 24.1 0.00 0.00 0.00 42 1011.4
20260505224600 12 331 8.0 24.1 0.00 0.00 0.00 41 1011.3
20260505223100 12 325 9.7 32.2 0.00 0.00 0.00 41 1011.2
20260505221559 13 348 6.4 27.4 0.00 0.00 0.00 42 1011.1
20260505220059 13 259 4.8 17.7 0.00 0.00 0.00 39 1011.0
20260505214600 13 313 6.4 22.5 0.00 0.00 0.00 39 1010.8
20260505213059 13 273 8.0 27.4 0.00 0.00 0.00 38 1010.8
20260505211610 13 287 3.2 29.0 0.00 0.00 0.00 38 1010.8
20260505204601 13 345 6.4 25.7 0.00 0.00 0.00 38 1011.0
20260505203059 13 292 3.2 22.5 0.00 0.00 0.00 38 1010.9
20260505201559 14 298 1.6 20.9 0.00 0.00 0.00 38 1010.9
20260505200052 14 215 4.8 20.9 0.00 0.00 0.00 38 1011.1
20260505194607 13 235 4.8 24.1 0.00 0.00 0.00 37 1011.2
20260505193052 14 296 4.8 17.7 0.00 0.00 0.00 38 1011.2
20260505191550 13 316 6.4 27.4 0.00 0.00 0.00 39 1011.3
20260505190051 13 275 4.8 27.4 0.00 0.00 0.00 38 1011.3
20260505184547 13 324 3.2 20.9 0.00 0.00 0.00 39 1011.1
20260505183046 12 343 6.4 27.4 0.00 0.00 0.00 38 1010.9
20260505181549 12 279 3.2 25.7 0.00 0.00 0.00 39 1010.9
20260505180044 12 298 4.8 32.2 0.00 0.00 0.00 39 1011.0
20260505174551 12 269 6.4 20.9 0.00 0.00 0.00 37 1011.1
20260505173042 12 296 3.2 25.7 0.00 0.00 0.00 41 1011.1
20260505171542 12 319 4.8 17.7 0.00 0.00 0.00 39 1011.1
20260505170040 12 264 3.2 19.3 0.00 0.00 0.00 39 1010.9
20260505164547 12 286 4.8 24.1 0.00 0.00 0.00 41 1011.2
20260505163050 12 229 3.2 27.4 0.00 0.00 0.00 43 1010.8
20260505161539 11 260 3.2 17.7 0.00 0.00 0.00 41 1010.9
20260505153037 10 342 1.6 27.4 0.00 0.00 0.00 49 1011.0
20260505151536 10 271 3.2 19.3 0.00 0.00 0.00 47 1010.8
20260505124530 7 256 0.0 0.0 0.00 0.00 0.00 59 1011.2
20260505123026 7 251 0.0 1.6 0.00 0.00 0.00 60 1010.9
20260505121525 7 269 0.0 1.6 0.00 0.00 0.00 64 1010.9
20260505120023 5 244 0.0 0.0 0.00 0.00 0.00 67 1010.5
20260505114521 4 248 0.0 0.0 0.00 0.00 0.00 73 1010.2
20260505113019 3 329 0.0 0.0 0.00 0.00 0.00 75 1009.3
20260505111519 4 229 0.0 0.0 0.00 0.00 0.00 71 1008.9
20260505101604 6 234 0.0 0.0 0.00 0.00 0.00 62 1008.8
20260505100058 6 244 0.0 0.0 0.00 0.00 0.00 58 1008.7
20260505094556 7 269 0.0 0.0 0.00 0.00 0.00 55 1008.6
20260505093053 7 266 0.0 0.0 0.00 0.00 0.00 54 1008.4
20260505091552 7 289 0.0 0.0 0.00 0.00 0.00 54 1008.5
20260505090049 7 298 0.0 0.0 0.00 0.00 0.00 54 1008.5
20260505084547 8 297 0.0 0.0 0.00 0.00 0.00 53 1008.3
20260505083046 8 324 0.0 9.7 0.00 0.00 0.00 53 1007.9
20260505081549 8 337 0.0 14.5 0.00 0.00 0.00 52 1007.8
20260505080044 8 327 3.2 20.9 0.00 0.00 0.00 51 1007.4
20260505074537 8 339 3.2 25.7 0.00 0.00 0.00 51 1007.0
20260505073044 8 336 4.8 33.8 0.00 0.00 0.00 52 1006.7
20260505071546 9 355 8.0 24.1 0.00 0.00 0.00 52 1006.6
20260505070029 10 333 4.8 32.2 0.00 0.00 0.00 52 1006.4
20260505064527 10 5 6.4 25.7 0.00 0.00 0.00 51 1006.1
20260505063025 10 5 4.8 29.0 0.00 0.00 0.00 52 1006.0
20260505061520 10 360 4.8 22.5 0.00 0.00 0.00 53 1006.0
20260505060018 11 344 3.2 27.4 0.00 0.00 0.00 54 1006.0